Time,TemperatureF,DewpointF,PressureIn,WindDirection,WindDirectionDegrees,WindSpeedMPH,WindSpeedGustMPH,Humidity,HourlyPrecipIn,Conditions,Clouds,dailyrainin,SoftwareType,DateUTC
2013-01-29 00:03:00,44.0,44.0,30.37,WNW,297,0.0,0.0,99,0.00,,,0.00,,2013-01-29 05:03:00,
2013-01-29 00:12:00,44.0,44.0,30.37,WNW,297,0.0,0.0,99,0.00,,,0.00,,2013-01-29 05:12:00,
2013-01-29 00:21:00,43.0,43.0,30.37,WNW,297,0.0,0.0,100,0.00,,,0.00,,2013-01-29 05:21:00,
2013-01-29 00:32:00,43.0,43.0,30.37,WNW,297,0.0,0.0,99,0.00,,,0.00,,2013-01-29 05:32:00,
2013-01-29 00:42:00,43.0,43.0,30.37,WNW,297,0.0,0.0,99,0.00,,,0.00,,2013-01-29 05:42:00,
2013-01-29 00:52:00,42.0,42.0,30.37,WNW,297,0.0,0.0,100,0.00,,,0.00,,2013-01-29 05:52:00,
2013-01-29 01:02:00,42.0,42.0,30.36,WNW,297,0.0,0.0,100,0.00,,,0.00,,2013-01-29 06:02:00,
2013-01-29 01:11:00,42.0,42.0,30.36,WNW,297,0.0,0.0,100,0.00,,,0.00,,2013-01-29 06:11:00,
2013-01-29 01:21:00,42.0,42.0,30.36,WNW,297,0.0,0.0,100,0.00,,,0.00,,2013-01-29 06:21:00,
2013-01-29 01:32:00,41.0,41.0,30.35,WNW,297,0.0,0.0,100,0.00,,,0.00,,2013-01-29 06:32:00,
2013-01-29 01:42:00,41.0,41.0,30.35,WNW,297,0.0,0.0,100,0.00,,,0.00,,2013-01-29 06:42:00,
2013-01-29 01:52:00,41.0,41.0,30.35,NNE,14,0.0,1.0,100,0.00,,,0.00,,2013-01-29 06:52:00,
2013-01-29 02:01:00,41.0,41.0,30.35,NE,34,2.0,2.0,100,0.00,,,0.00,,2013-01-29 07:01:00,
2013-01-29 02:11:00,41.0,41.0,30.35,NE,34,2.0,2.0,100,0.00,,,0.00,,2013-01-29 07:11:00,
2013-01-29 02:21:00,40.0,40.0,30.35,NW,318,0.0,0.0,100,0.00,,,0.00,,2013-01-29 07:21:00,
2013-01-29 02:32:00,40.0,40.0,30.35,NNE,17,2.0,3.0,100,0.00,,,0.00,,2013-01-29 07:32:00,
2013-01-29 02:42:00,40.0,40.0,30.35,NNE,17,2.0,3.0,100,0.00,,,0.00,,2013-01-29 07:42:00,
2013-01-29 02:52:00,40.0,40.0,30.35,NE,35,0.0,0.0,100,0.00,,,0.00,,2013-01-29 07:52:00,
2013-01-29 03:02:00,39.0,39.0,30.35,NE,35,0.0,0.0,100,0.00,,,0.00,,2013-01-29 08:02:00,
2013-01-29 03:11:00,39.0,39.0,30.35,NE,35,0.0,0.0,100,0.00,,,0.00,,2013-01-29 08:11:00,
2013-01-29 03:21:00,40.0,40.0,30.35,NE,35,0.0,0.0,100,0.00,,,0.00,,2013-01-29 08:21:00,
2013-01-29 03:31:00,39.0,39.0,30.35,NE,35,0.0,0.0,100,0.00,,,0.00,,2013-01-29 08:31:00,
2013-01-29 03:42:00,39.0,39.0,30.35,NE,35,0.0,0.0,100,0.00,,,0.00,,2013-01-29 08:42:00,
2013-01-29 03:52:00,39.0,39.0,30.34,SW,236,0.0,0.0,100,0.00,,,0.00,,2013-01-29 08:52:00,
2013-01-29 04:01:00,39.0,39.0,30.33,NE,44,2.0,3.0,100,0.00,,,0.00,,2013-01-29 09:01:00,
2013-01-29 04:11:00,39.0,39.0,30.33,NE,44,2.0,3.0,100,0.00,,,0.00,,2013-01-29 09:11:00,
2013-01-29 04:21:00,43.0,43.0,30.32,West,281,0.0,0.0,100,0.00,,,0.00,,2013-01-29 09:21:00,
2013-01-29 04:32:00,47.0,47.0,30.32,WSW,256,0.0,0.0,100,0.00,,,0.00,,2013-01-29 09:32:00,
2013-01-29 04:42:00,47.0,47.0,30.32,WSW,256,0.0,0.0,100,0.00,,,0.00,,2013-01-29 09:42:00,
2013-01-29 04:52:00,51.0,47.0,30.33,SSW,201,2.0,4.0,86,0.00,,,0.00,,2013-01-29 09:52:00,
2013-01-29 05:01:00,52.0,47.0,30.31,NE,41,0.0,0.0,83,0.00,,,0.00,,2013-01-29 10:01:00,
2013-01-29 05:11:00,52.0,47.0,30.31,NE,41,0.0,0.0,83,0.00,,,0.00,,2013-01-29 10:11:00,
2013-01-29 05:21:00,53.0,47.0,30.31,West,263,1.0,2.0,79,0.00,,,0.00,,2013-01-29 10:21:00,
2013-01-29 05:32:00,53.0,48.0,30.30,West,267,2.0,3.0,82,0.00,,,0.00,,2013-01-29 10:32:00,
2013-01-29 05:42:00,53.0,48.0,30.30,West,267,2.0,3.0,82,0.00,,,0.00,,2013-01-29 10:42:00,
2013-01-29 05:52:00,47.0,45.0,30.30,NNE,14,0.0,1.0,91,0.00,,,0.00,,2013-01-29 10:52:00,
2013-01-29 06:02:00,43.0,42.0,30.30,NNW,333,2.0,3.0,96,0.00,,,0.00,,2013-01-29 11:02:00,
2013-01-29 06:11:00,43.0,42.0,30.30,NNW,333,2.0,3.0,96,0.00,,,0.00,,2013-01-29 11:11:00,
2013-01-29 06:22:00,42.0,41.0,30.30,SSE,159,0.0,0.0,98,0.00,,,0.00,,2013-01-29 11:22:00,
2013-01-29 06:32:00,42.0,41.0,30.30,North,6,0.0,0.0,98,0.00,,,0.00,,2013-01-29 11:32:00,
2013-01-29 06:42:00,42.0,41.0,30.30,North,6,0.0,0.0,98,0.00,,,0.00,,2013-01-29 11:42:00,
2013-01-29 06:52:00,41.0,40.0,30.30,SE,143,0.0,0.0,98,0.00,,,0.00,,2013-01-29 11:52:00,
2013-01-29 07:02:00,41.0,41.0,30.30,NW,305,0.0,0.0,99,0.00,,,0.00,,2013-01-29 12:02:00,
2013-01-29 07:12:00,41.0,41.0,30.30,NW,305,0.0,0.0,99,0.00,,,0.00,,2013-01-29 12:12:00,
2013-01-29 07:22:00,41.0,41.0,30.31,SSW,205,0.0,0.0,99,0.00,,,0.00,,2013-01-29 12:22:00,
2013-01-29 07:33:00,41.0,41.0,30.31,NE,45,1.0,2.0,100,0.00,,,0.00,,2013-01-29 12:33:00,
2013-01-29 07:43:00,41.0,41.0,30.31,NE,45,1.0,2.0,100,0.00,,,0.00,,2013-01-29 12:43:00,
2013-01-29 07:53:00,40.0,40.0,30.32,SSW,197,1.0,3.0,100,0.00,,,0.00,,2013-01-29 12:53:00,
2013-01-29 08:02:00,40.0,40.0,30.31,ENE,58,1.0,2.0,100,0.00,,,0.00,,2013-01-29 13:02:00,
2013-01-29 08:12:00,40.0,40.0,30.31,ENE,58,1.0,2.0,100,0.00,,,0.00,,2013-01-29 13:12:00,
2013-01-29 08:22:00,40.0,40.0,30.32,South,170,1.0,2.0,100,0.00,,,0.00,,2013-01-29 13:22:00,
2013-01-29 08:32:00,41.0,41.0,30.31,North,356,0.0,0.0,100,0.00,,,0.00,,2013-01-29 13:32:00,
2013-01-29 08:42:00,41.0,41.0,30.31,North,356,0.0,0.0,100,0.00,,,0.00,,2013-01-29 13:42:00,
2013-01-29 08:52:00,42.0,42.0,30.31,SSE,159,0.0,2.0,100,0.00,,,0.00,,2013-01-29 13:52:00,
2013-01-29 09:02:00,44.0,43.0,30.31,North,3,0.0,0.0,98,0.00,,,0.00,,2013-01-29 14:02:00,
2013-01-29 09:12:00,46.0,45.0,30.31,West,274,3.0,4.0,97,0.00,,,0.00,,2013-01-29 14:12:00,
2013-01-29 09:22:00,46.0,45.0,30.31,West,274,3.0,4.0,97,0.00,,,0.00,,2013-01-29 14:22:00,
2013-01-29 09:33:00,49.0,47.0,30.31,ENE,70,1.0,2.0,94,0.00,,,0.00,,2013-01-29 14:33:00,
2013-01-29 09:43:00,49.0,47.0,30.31,ENE,70,1.0,2.0,94,0.00,,,0.00,,2013-01-29 14:43:00,
2013-01-29 09:53:00,52.0,49.0,30.31,ESE,114,2.0,3.0,88,0.00,,,0.00,,2013-01-29 14:53:00,
2013-01-29 10:02:00,55.0,50.0,30.31,WNW,298,1.0,2.0,83,0.00,,,0.00,,2013-01-29 15:02:00,
2013-01-29 10:12:00,55.0,50.0,30.31,WNW,298,1.0,2.0,83,0.00,,,0.00,,2013-01-29 15:12:00,
2013-01-29 10:22:00,59.0,53.0,30.31,SSW,201,2.0,2.0,80,0.00,,,0.00,,2013-01-29 15:22:00,
2013-01-29 10:33:00,62.0,54.0,30.31,SE,146,4.0,5.0,76,0.00,,,0.00,,2013-01-29 15:33:00,
2013-01-29 10:43:00,62.0,54.0,30.31,SE,146,4.0,5.0,76,0.00,,,0.00,,2013-01-29 15:43:00,
2013-01-29 10:53:00,64.0,56.0,30.30,NW,305,1.0,4.0,75,0.00,,,0.00,,2013-01-29 15:53:00,
2013-01-29 11:03:00,66.0,56.0,30.30,SW,226,4.0,6.0,71,0.00,,,0.00,,2013-01-29 16:03:00,
2013-01-29 11:12:00,66.0,56.0,30.30,SW,226,4.0,6.0,71,0.00,,,0.00,,2013-01-29 16:12:00,
2013-01-29 11:22:00,68.0,57.0,30.31,WSW,256,6.0,9.0,68,0.00,,,0.00,,2013-01-29 16:22:00,
2013-01-29 11:32:00,68.0,58.0,30.30,WSW,243,4.0,6.0,70,0.00,,,0.00,,2013-01-29 16:32:00,
2013-01-29 11:43:00,68.0,58.0,30.30,WSW,243,4.0,6.0,70,0.00,,,0.00,,2013-01-29 16:43:00,
2013-01-29 11:53:00,67.0,58.0,30.30,NNE,15,4.0,11.0,73,0.00,,,0.00,,2013-01-29 16:53:00,
2013-01-29 12:03:00,67.0,58.0,30.29,WNW,302,6.0,9.0,73,0.00,,,0.00,,2013-01-29 17:03:00,
2013-01-29 12:12:00,67.0,58.0,30.29,WNW,302,6.0,9.0,73,0.00,,,0.00,,2013-01-29 17:12:00,
2013-01-29 12:22:00,68.0,59.0,30.28,West,280,6.0,8.0,72,0.00,,,0.00,,2013-01-29 17:22:00,
2013-01-29 12:32:00,68.0,59.0,30.27,WSW,240,4.0,6.0,73,0.00,,,0.00,,2013-01-29 17:32:00,
2013-01-29 12:42:00,68.0,59.0,30.27,WSW,240,4.0,6.0,73,0.00,,,0.00,,2013-01-29 17:42:00,
2013-01-29 12:52:00,69.0,60.0,30.27,South,184,4.0,7.0,72,0.00,,,0.00,,2013-01-29 17:52:00,
2013-01-29 13:04:00,69.0,59.0,30.26,South,179,3.0,5.0,71,0.00,,,0.00,,2013-01-29 18:04:00,
2013-01-29 13:12:00,69.0,59.0,30.26,South,179,3.0,5.0,71,0.00,,,0.00,,2013-01-29 18:12:00,
2013-01-29 13:22:00,69.0,60.0,30.25,West,259,3.0,6.0,72,0.00,,,0.00,,2013-01-29 18:22:00,
2013-01-29 13:33:00,68.0,59.0,30.24,NW,305,2.0,4.0,74,0.00,,,0.00,,2013-01-29 18:33:00,
2013-01-29 13:42:00,68.0,59.0,30.24,NW,305,2.0,4.0,74,0.00,,,0.00,,2013-01-29 18:42:00,
2013-01-29 13:52:00,68.0,60.0,30.24,NW,325,2.0,3.0,75,0.00,,,0.00,,2013-01-29 18:52:00,
2013-01-29 14:03:00,68.0,59.0,30.24,WSW,253,3.0,5.0,74,0.00,,,0.00,,2013-01-29 19:03:00,
2013-01-29 14:12:00,68.0,59.0,30.24,WSW,253,3.0,5.0,74,0.00,,,0.00,,2013-01-29 19:12:00,
2013-01-29 14:22:00,68.0,59.0,30.24,NW,318,2.0,4.0,74,0.00,,,0.00,,2013-01-29 19:22:00,
2013-01-29 14:32:00,69.0,60.0,30.24,WSW,255,3.0,6.0,74,0.00,,,0.00,,2013-01-29 19:32:00,
2013-01-29 14:42:00,69.0,60.0,30.24,WSW,255,3.0,6.0,74,0.00,,,0.00,,2013-01-29 19:42:00,
2013-01-29 14:52:00,68.0,60.0,30.24,South,191,6.0,8.0,76,0.00,,,0.00,,2013-01-29 19:52:00,
2013-01-29 15:02:00,68.0,61.0,30.24,West,273,5.0,10.0,78,0.00,,,0.00,,2013-01-29 20:02:00,
2013-01-29 15:12:00,68.0,61.0,30.24,West,273,5.0,10.0,78,0.00,,,0.00,,2013-01-29 20:12:00,
2013-01-29 15:22:00,67.0,60.0,30.23,SE,131,2.0,4.0,79,0.00,,,0.00,,2013-01-29 20:22:00,
2013-01-29 15:33:00,67.0,61.0,30.23,NNW,343,4.0,7.0,80,0.00,,,0.00,,2013-01-29 20:33:00,
2013-01-29 15:42:00,67.0,61.0,30.23,NNW,343,4.0,7.0,80,0.00,,,0.00,,2013-01-29 20:42:00,
2013-01-29 15:53:00,68.0,61.0,30.23,WNW,290,6.0,8.0,77,0.00,,,0.00,,2013-01-29 20:53:00,
2013-01-29 16:03:00,68.0,61.0,30.22,WNW,288,2.0,6.0,77,0.00,,,0.00,,2013-01-29 21:03:00,
2013-01-29 16:12:00,68.0,61.0,30.22,WNW,288,2.0,6.0,77,0.00,,,0.00,,2013-01-29 21:12:00,
2013-01-29 16:22:00,68.0,61.0,30.22,WNW,293,3.0,4.0,78,0.00,,,0.00,,2013-01-29 21:22:00,
2013-01-29 16:33:00,68.0,61.0,30.21,WSW,250,2.0,3.0,78,0.00,,,0.00,,2013-01-29 21:33:00,
2013-01-29 16:42:00,68.0,61.0,30.21,WSW,250,2.0,3.0,78,0.00,,,0.00,,2013-01-29 21:42:00,
2013-01-29 16:52:00,68.0,61.0,30.21,South,180,1.0,3.0,79,0.00,,,0.00,,2013-01-29 21:52:00,
2013-01-29 17:03:00,68.0,61.0,30.21,South,183,2.0,5.0,79,0.00,,,0.00,,2013-01-29 22:03:00,
2013-01-29 17:12:00,68.0,61.0,30.21,South,183,2.0,5.0,79,0.00,,,0.00,,2013-01-29 22:12:00,
2013-01-29 17:22:00,67.0,61.0,30.21,South,176,0.0,1.0,80,0.00,,,0.00,,2013-01-29 22:22:00,
2013-01-29 17:33:00,67.0,61.0,30.21,South,181,4.0,6.0,81,0.00,,,0.00,,2013-01-29 22:33:00,
2013-01-29 17:42:00,67.0,61.0,30.21,South,181,4.0,6.0,81,0.00,,,0.00,,2013-01-29 22:42:00,
2013-01-29 17:53:00,66.0,60.0,30.21,WSW,253,4.0,5.0,81,0.00,,,0.00,,2013-01-29 22:53:00,
2013-01-29 18:02:00,66.0,60.0,30.21,WSW,246,2.0,2.0,82,0.00,,,0.00,,2013-01-29 23:02:00,
2013-01-29 18:12:00,66.0,60.0,30.21,WSW,246,2.0,2.0,82,0.00,,,0.00,,2013-01-29 23:12:00,
2013-01-29 18:22:00,66.0,60.0,30.21,West,263,0.0,0.0,82,0.00,,,0.00,,2013-01-29 23:22:00,
2013-01-29 18:33:00,66.0,60.0,30.20,SSE,148,0.0,0.0,82,0.00,,,0.00,,2013-01-29 23:33:00,
2013-01-29 18:42:00,66.0,60.0,30.20,SSE,148,0.0,0.0,82,0.00,,,0.00,,2013-01-29 23:42:00,
2013-01-29 18:52:00,66.0,61.0,30.21,SSE,148,0.0,0.0,83,0.00,,,0.00,,2013-01-29 23:52:00,
2013-01-29 19:03:00,65.0,60.0,30.21,SSE,148,0.0,0.0,84,0.00,,,0.00,,2013-01-30 00:03:00,
2013-01-29 19:12:00,65.0,60.0,30.21,SSE,148,0.0,0.0,84,0.00,,,0.00,,2013-01-30 00:12:00,
2013-01-29 19:22:00,64.0,59.0,30.20,SSE,148,0.0,0.0,85,0.00,,,0.00,,2013-01-30 00:22:00,
2013-01-29 19:32:00,64.0,60.0,30.20,SSE,148,0.0,0.0,87,0.00,,,0.00,,2013-01-30 00:32:00,
2013-01-29 19:43:00,64.0,60.0,30.20,SSE,148,0.0,0.0,87,0.00,,,0.00,,2013-01-30 00:43:00,
2013-01-29 19:53:00,63.0,59.0,30.19,SSE,148,0.0,0.0,88,0.00,,,0.00,,2013-01-30 00:53:00,
2013-01-29 20:02:00,63.0,60.0,30.19,NE,42,2.0,2.0,89,0.00,,,0.00,,2013-01-30 01:02:00,
2013-01-29 20:12:00,63.0,60.0,30.19,NE,42,2.0,2.0,89,0.00,,,0.00,,2013-01-30 01:12:00,
2013-01-29 20:22:00,63.0,60.0,30.20,NNE,28,0.0,0.0,89,0.00,,,0.00,,2013-01-30 01:22:00,
2013-01-29 20:32:00,63.0,60.0,30.19,WNW,293,0.0,0.0,89,0.00,,,0.00,,2013-01-30 01:32:00,
2013-01-29 20:42:00,63.0,60.0,30.19,WNW,293,0.0,0.0,89,0.00,,,0.00,,2013-01-30 01:42:00,
2013-01-29 20:52:00,62.0,59.0,30.19,NE,38,0.0,0.0,90,0.00,,,0.00,,2013-01-30 01:52:00,
2013-01-29 21:02:00,62.0,59.0,30.19,NE,38,0.0,0.0,89,0.00,,,0.00,,2013-01-30 02:02:00,
2013-01-29 21:12:00,62.0,59.0,30.19,NE,38,0.0,0.0,90,0.00,,,0.00,,2013-01-30 02:12:00,
2013-01-29 21:22:00,62.0,59.0,30.19,NE,38,0.0,0.0,90,0.00,,,0.00,,2013-01-30 02:22:00,
2013-01-29 21:33:00,62.0,59.0,30.19,NE,38,0.0,0.0,90,0.00,,,0.00,,2013-01-30 02:33:00,
2013-01-29 21:42:00,62.0,59.0,30.19,NE,38,0.0,0.0,90,0.00,,,0.00,,2013-01-30 02:42:00,
2013-01-29 21:53:00,62.0,60.0,30.18,North,359,2.0,2.0,94,0.00,,,0.00,,2013-01-30 02:53:00,
2013-01-29 22:03:00,62.0,60.0,30.17,NE,52,0.0,1.0,92,0.00,,,0.00,,2013-01-30 03:03:00,
2013-01-29 22:12:00,62.0,60.0,30.17,NE,52,0.0,1.0,92,0.00,,,0.00,,2013-01-30 03:12:00,
2013-01-29 22:22:00,62.0,60.0,30.17,ENE,63,2.0,2.0,92,0.00,,,0.00,,2013-01-30 03:22:00,
2013-01-29 22:32:00,62.0,60.0,30.16,NE,44,0.0,0.0,92,0.00,,,0.00,,2013-01-30 03:32:00,
2013-01-29 22:42:00,62.0,60.0,30.16,NE,44,0.0,0.0,92,0.00,,,0.00,,2013-01-30 03:42:00,
2013-01-29 22:52:00,62.0,60.0,30.16,WNW,300,2.0,3.0,93,0.00,,,0.00,,2013-01-30 03:52:00,
2013-01-29 23:02:00,62.0,60.0,30.16,North,354,3.0,3.0,94,0.00,,,0.00,,2013-01-30 04:02:00,
2013-01-29 23:12:00,62.0,60.0,30.16,North,354,3.0,3.0,94,0.00,,,0.00,,2013-01-30 04:12:00,
2013-01-29 23:22:00,62.0,61.0,30.15,South,186,2.0,6.0,97,0.00,,,0.01,,2013-01-30 04:22:00,
2013-01-29 23:32:00,61.0,61.0,30.16,NNW,343,2.0,2.0,99,0.00,,,0.07,,2013-01-30 04:32:00,
2013-01-29 23:42:00,61.0,61.0,30.16,NNW,343,2.0,2.0,99,0.00,,,0.07,,2013-01-30 04:42:00,
2013-01-29 23:52:00,60.0,60.0,30.15,ESE,104,2.0,2.0,100,0.00,,,0.08,,2013-01-30 04:52:00,